Regional Weather Roundup
Issued by NWS Upton, NY

Current Version | Previous Version | Text Only | Print | Product List | Glossary On
Versions: 1 2 3 4 5 6 7 8 9 10 11 12 13 14 15 16 17 18 19 20 21 22 23 24 25 26 27 28 29 30 31 32 33 34 35 36 37 38 39 40 41 42 43 44 45 46 47 48 49 50
822 ASUS41 KOKX 201509 RWROKX REGIONAL WEATHER ROUNDUP NATIONAL WEATHER SERVICE NEW YORK NY 1100 AM EDT THU JUL 20 2017 NOTE: "FAIR" INDICATES FEW OR NO CLOUDS BELOW 12,000 FEET WITH NO SIGNIFICANT WEATHER AND/OR OBSTRUCTIONS TO VISIBILITY. NYZ071-072-176-178-NJZ106-104-201600- NEW YORK CITY METRO AREA CITY SKY/WX TMP DP RH WIND PRES REMARKS Central Park SUNNY 87 71 58 CALM 30.00F HX 93 Bronx Bot Gard N/A 90 68 48 W5 30.00R HX 93 LaGuardia APRT MOSUNNY 89 73 59 VRB3 29.96F HX 97 Kennedy INTL PTSUNNY 89 72 56 S6 29.98S HX 96 Breezy Point N/A 82 N/A N/A SW5 N/A Newark/Liberty PTSUNNY 92 69 47 NW7 29.97F HX 97 Teterboro SUNNY 89 70 53 W5 29.96F HX 94 $$ NYZ177-179-078>081-201600- LONG ISLAND NEW YORK CITY SKY/WX TMP DP RH WIND PRES REMARKS Jones Beach N/A 81 N/A N/A W6 N/A Matinecock PT N/A 81 N/A N/A E2 N/A Farmingdale MOSUNNY 88 72 58 S5 29.98S HX 94 MacArthur/ISP PTSUNNY 90 66 45 SW5 29.97S HX 92 Shirley MOSUNNY 89 67 47 S6 29.98S HX 92 Mt Sinai Harb N/A 81 N/A N/A N2 N/A Westhampton MOSUNNY 87 64 46 SE6 30.00S East Hampton FAIR 85 68 57 S5 29.97S Montauk N/A 85 67 54 W6 29.98F $$ NYZ052-065-067-201600- HUDSON VALLEY CITY SKY/WX TMP DP RH WIND PRES REMARKS White Plains NOT AVBL Larchmont Harb N/A 77 N/A N/A E3 N/A Croton O-T Hud N/A 84 N/A N/A CALM N/A Newburgh MOSUNNY 84 72 65 CALM 30.00F Montgomery SUNNY 85 72 65 SW3 29.98F HX 91 Poughkeepsie SUNNY 84 68 58 VRB5 29.96F Albany PTSUNNY 81 67 62 CALM 29.97S $$ NJZ001-105-106-008-010-013-015-019>022-104-201600- NEW JERSEY CITY SKY/WX TMP DP RH WIND PRES REMARKS Newark/Liberty PTSUNNY 92 69 47 NW7 29.97F HX 97 Teterboro SUNNY 89 70 53 W5 29.96F HX 94 Caldwell SUNNY 88 70 55 VRB3 29.98F HX 93 Somerville SUNNY 89 73 59 NW5 29.97F HX 97 Linden FAIR 89 69 51 NW5 29.98F HX 93 Perth Amboy N/A 86 N/A N/A W7 N/A Sussex MOSUNNY 84 73 69 VRB5 29.99F HX 90 Andover N/A 85 71 63 VRB3 30.02S HX 90 Trenton SUNNY 87 74 64 VRB5 29.99S HX 95 Millville SUNNY 89 78 70 NW8 30.00S HX 103 Atlantic City SUNNY 91 74 57 NW7 30.00S HX 100 Wrightstown SUNNY 89 74 60 W9 29.97S HX 98 Toms River MOSUNNY 93 73 52 SW7 29.99F HX 102 Belmar SUNNY 90 75 61 W6 30.00S HX 100 $$ PAZ047>061-062-071-201600- EASTERN PENNSYLVANIA CITY SKY/WX TMP DP RH WIND PRES REMARKS Philadelphia PTSUNNY 89 71 55 SW10 29.99F HX 95 Allentown SUNNY 88 71 57 SW7 30.01S HX 94 Scranton SUNNY 80 70 71 SW5 30.03F $$ CTZ002-004>006-009-010-012-RIZ004-006-007-MAZ004-011-015-201600- SOUTHERN NEW ENGLAND IN CT CITY SKY/WX TMP DP RH WIND PRES REMARKS Bradley INTL PTSUNNY 85 68 56 SW7 29.96F Hartford MOSUNNY N/A N/A N/A MISG 29.95S Danbury SUNNY 85 65 51 SW8 30.00F Wtrbury/Oxford PTSUNNY 82 64 54 W5 30.01F Bridgeport SUNNY 84 65 52 SW6 29.97S Meriden MOSUNNY 86 68 54 VRB6 29.96F New Haven SUNNY 85 65 51 S8 29.97S Chester FAIR 86 66 51 VRB5 29.99S Groton MOSUNNY 83 68 60 SW6 29.96S Wilimantic SUNNY 88 67 49 W6 29.97S HX 91 IN RI CITY SKY/WX TMP DP RH WIND PRES REMARKS Providence PTSUNNY 88 69 53 W8 29.96F HX 92 Block Island MOSUNNY 83 68 60 W10 29.98F Westerly MOSUNNY 85 64 49 W8 29.98S IN MA CITY SKY/WX TMP DP RH WIND PRES REMARKS Boston PTSUNNY 87 66 49 W8 29.93F Worcester PTSUNNY 82 64 54 W9 29.99S Westfield MOSUNNY 85 71 63 S7 29.95F HX 90 Provincetown MOSUNNY 84 67 56 W5 29.95F Nantucket MOSUNNY 82 71 69 SW7 29.96S $$ ANZ330-335-338-340-345-350-353-355-201600- COASTAL MARINE OBSERVATIONS STATION/POSITION TIME SKY/WX TEMP WIND PRES VSBY WAVE AIR SEA DIR/SP/G HT/PER (UTC) (F) (DEG/KT/KT) (MB) (MI) (FT/S) NY HARB ENTRANCE 1350 76 75 240/ 2/ 2 1014.9 2/15 20 S FIRE ISLAND 1450 76 75 250/ 4/ 6 1014.9 3/15 GREAT SOUTH BAY 1430 83 82 CALM N/A 23 SSW MONTAUK P 1350 76 76 1015.7 3/ 5 15 E BARNEGAT LI 1430 79 N/A 3/14 HUDSON CANYON 1350 79 78 240/ 10/ 12 1015.0 3/ 5 KINGS POINT 1430 79 72 CALM / 2 1015.0 EXECUTION ROCKS 1445 79 CALM / 2 N/A CENTRAL LI SOUND 1430 78 CALM / 2 N/A 0 EASTERN LI SOUND NOT AVBL ROBBINS REEF 1424 230/ 6/ 7 1015.8 $$ >>>>>>>>>>>>>>>>>>>>>>>>>>>> KEY <<<<<<<<<<<<<<<<<<<<<<<<<<< > < > SKY/WX - Sky Condition/Present Weather < > TMP - Temperature in Fahrenheit < > DP - Dew Point in Fahrenheit < > RH - Relative Humidity in Percent < > WIND - Direction (from) and Speed in MPH < > PRES - Mean Sea Level Pressure (inches of Hg) < > WCI - Wind Chill Index < > VSB - VISIBILITY IN MILES < > HX - HEAT INDEX < > TC - TEMPERATURE IN CELSIUS < > VRB - VARIABLE WIND DIRECTION < > < >>>>>>>>>>>>>>>>>>>>>>>>>>>> KEY <<<<<<<<<<<<<<<<<<<<<<<<<<<

USA.gov is the U.S. government's official web portal to all federal, state and local government web resources and services.